[[{"header":{"parameterUnit":"m.s-1","parameterCategory":1,"la1":30.2991,"la2":30.254,"lo1":-89.0895,"lo2":-89.0444,"dy":0.0017,"dx":0.0017,"nx":28,"ny":28,"refTime":"2025-02-28T03:00:00:Z","depth":0,"parameterNumber":2,"parameterNumberName":"U-component_of_WINDS"},"data":[0,0,0,0,0,0,0,0,0,0,0,0,0,0,0,0,0,0,0,0,0,0,0,0,0,0,0,0,0,0,0,0,0,0,0,0,0,0,0,0,0,0,0,0,0,0,0,0,0,0,0,0,0,0,0,0,0,0,2.1466,2.1466,0,2.1462,2.1462,2.1462,2.1371,2.1369,2.1366,2.1364,2.1368,2.137,2.1372,0,0,0,0,0,0,0,0,0,0,0,0,0,2.1399,2.1401,2.1466,2.1466,2.1466,2.1462,2.1462,2.1462,2.1372,2.1369,2.1366,2.1363,2.1367,2.137,2.1373,0,0,0,0,0,0,0,0,0,0,0,0,0,2.1416,2.1402,2.1466,2.142,2.1416,2.1462,2.1462,2.1462,2.1372,2.1369,2.1365,2.1362,2.1366,2.137,2.1373,2.1466,0,0,2.1384,2.1385,0,0,0,0,0,0,0,0,2.1415,2.1418,2.1427,2.1423,2.1418,2.1413,2.144,2.1464,2.1373,2.1389,2.1364,2.136,2.1386,2.1388,2.1395,2.1466,2.1466,2.1384,2.1386,2.1388,2.1389,0,0,0,0,0,0,0,2.1414,2.1418,2.1464,2.1427,2.1422,2.1401,2.14,2.1444,2.1408,2.1387,2.1381,2.1381,2.1384,2.1392,2.1395,2.1466,2.1384,2.1387,2.1389,2.139,2.1613,2.1616,0,0,0,0,0,0,2.1418,2.1417,2.1465,2.1464,2.1407,2.1405,2.1403,2.1419,2.1407,2.1402,2.1384,2.1377,2.1388,2.1391,2.1395,2.1502,2.1388,2.1391,2.1393,2.1609,2.1613,2.1618,0,0,0,0,0,0,2.1417,2.1423,2.1465,2.1439,2.1443,2.141,2.1428,2.1421,2.1429,2.1405,2.1398,2.1399,2.1385,2.139,2.1448,2.1501,2.1392,2.1396,2.1604,2.161,2.1616,2.1719,0,0,0,0,0,0,2.1415,2.1423,2.1457,2.144,2.1444,2.1517,2.1431,2.1423,2.1434,2.1425,2.1417,2.1413,2.1383,2.1444,2.1452,2.1504,2.1398,2.1599,2.1607,2.1614,2.171,2.1727,2.1741,0,0,0,0,0,2.1413,2.1487,2.1459,2.1465,2.1485,2.152,2.1523,2.1485,2.1439,2.1473,2.1458,2.1413,2.1494,2.145,2.1459,2.1513,2.1596,2.1605,2.1613,2.1703,2.1724,2.1741,0,0,0,0,0,0,2.1513,2.1484,2.1452,2.1523,2.1524,2.1504,2.1547,2.1508,2.1524,2.1515,2.1469,2.1468,2.1534,2.1529,2.1481,2.1602,2.1537,2.1548,2.1603,2.1622,2.1637,2.1637,2.1401,0,0,0,0,0,2.1543,2.1572,2.1546,2.1611,2.1613,2.158,2.1594,2.1564,2.1565,2.1566,2.1554,2.1558,2.1584,2.1603,2.1626,2.1709,2.1706,2.175,2.1766,2.1779,2.1789,2.1833,2.1852,2.1646,2.1646,2.1646,0,0,2.1606,2.1594,2.1615,2.163,2.1628,2.166,2.1581,2.1619,2.1643,2.1572,2.1626,2.1618,2.1619,2.1691,2.1721,2.1689,2.1845,2.179,2.18,2.1803,2.1844,2.1863,2.1881,2.1652,2.1651,2.165,0,0,2.1737,2.173,2.1783,2.1782,2.1778,2.1755,2.1768,2.1754,2.1745,2.1798,2.1745,2.1775,2.1821,2.1824,2.1832,2.1963,2.1923,2.1972,2.2054,2.2097,2.2113,2.2128,2.2175,2.2192,2.1982,2.1982,2.1983,0,2.1816,2.186,2.1816,2.1856,2.1865,2.18,2.1854,2.1856,2.1862,2.187,2.1832,2.1888,2.1885,2.1956,2.1988,2.1996,2.2011,2.1973,2.2114,2.2128,2.2141,2.2185,2.2203,2.1988,2.1988,2.1987,2.1986,0,2.1958,2.199,2.2033,2.2037,2.2051,2.2099,2.2063,2.2083,2.2053,2.2035,2.209,2.2083,2.2103,2.2118,2.209,2.2185,2.2165,2.2122,2.2056,2.2167,2.2208,2.2225,2.1997,2.1995,2.1993,2.1992,0,0,2.2152,2.213,2.2147,2.2148,2.2139,2.2164,2.2209,2.2226,2.2244,2.225,2.2288,2.2328,2.2287,2.2296,2.2268,2.2306,2.241,2.2257,2.2257,2.2286,2.2516,2.2549,2.2569,2.2383,2.2386,2.2389,2.2516,0,2.2278,2.2352,2.2313,2.2393,2.2422,2.2361,2.24,2.24,2.2385,2.2409,2.2393,2.2422,2.2366,2.2371,2.2405,2.239,2.2456,2.2381,2.242,2.2421,2.2421,2.259,2.2625,2.2746,2.2532,2.2534,2.2536,0,2.2436,2.2446,2.2528,2.2513,2.2524,2.256,2.2573,2.2596,2.2595,2.2581,2.2591,2.2553,2.2598,2.2532,2.2594,2.2544,2.2557,2.2553,2.2556,2.2559,2.2486,2.2598,2.2783,2.2801,2.2561,2.2559,2.2557,0,2.257,2.2604,2.2657,2.266,2.2644,2.2671,2.2666,2.2661,2.2674,2.2686,2.2694,2.2712,2.2722,2.2738,2.2706,2.2661,2.2773,2.2705,2.2764,2.2765,2.2791,2.279,2.2981,2.28,2.2799,2.2799,2.2799,0,2.2715,2.2768,2.2717,2.275,2.2808,2.2763,2.2822,2.2811,2.2807,2.2838,2.2787,2.2817,2.2774,2.2801,2.2777,2.2832,2.2837,2.2828,2.2821,2.2833,2.2834,2.2842,2.2833,2.2804,2.2803,2.2802,2.2801,0,2.2874,2.2842,2.2896,2.2876,2.2872,2.2916,2.2899,2.293,2.291,2.295,2.2957,2.2927,2.2956,2.2926,2.2954,2.2937,2.3012,2.2993,2.3011,2.3006,2.3067,2.3062,2.327,2.3295,2.3098,2.31,2.3102,0,2.2969,2.3008,2.2992,2.3007,2.3005,2.3031,2.3043,2.3002,2.3017,2.3018,2.3049,2.3073,2.309,2.3139,2.3121,2.3142,2.3123,2.3195,2.3126,2.3137,2.3125,2.3123,2.3126,2.3209,2.3211,2.3213,2.3215,0,2.3142,2.3123,2.3142,2.3155,2.317,2.3179,2.3185,2.3201,2.3158,2.3178,2.3205,2.3218,2.3245,2.327,2.3285,2.3282,2.3242,2.3236,2.3251,2.3264,2.3273,2.3269,2.305,2.3232,2.323,2.3229,2.3228,2.3227,2.3272,2.3303,2.3296,2.3318,2.3317,2.3323,2.335,2.3334,2.3355,2.3372,2.3347,2.3381,2.338,2.3395,2.3397,2.3424,2.3394,2.3416,2.3421,2.3427,2.3436,2.3268,2.3427,2.3426,2.3426,2.3425,2.3425,0,2.3441,2.3433,2.3454,2.3462,2.348,2.3438,2.3442,2.346,2.349,2.3491,2.3508,2.354,2.3563,2.3547,2.3567,2.3592,2.3574,2.3599,2.3597,2.3597,2.3462,2.3447,2.3613,2.3613,2.3613,2.3613,2.3613,2.3613,2.3531,2.3582,2.3563,2.3614,2.3606,2.3637,2.3643,2.3649,2.3649,2.3686,2.3704,2.3692,2.3687,2.3706,2.3726,2.3721,2.3731,2.3762,2.375,2.3625,2.3606,2.3589,2.3574,2.3764,2.3765,2.3882,2.3884,2.3884]},{"header":{"parameterUnit":"m.s-1","parameterCategory":1,"la1":30.2991,"la2":30.254,"lo1":-89.0895,"lo2":-89.0444,"dy":0.0017,"dx":0.0017,"nx":28,"ny":28,"refTime":"2025-02-28T03:00:00:Z","depth":0,"parameterNumber":3,"parameterNumberName":"V-component_of_WINDS"},"data":[0,0,0,0,0,0,0,0,0,0,0,0,0,0,0,0,0,0,0,0,0,0,0,0,0,0,0,0,0,0,0,0,0,0,0,0,0,0,0,0,0,0,0,0,0,0,0,0,0,0,0,0,0,0,0,0,0,0,2.9215,2.9217,0,2.9347,2.9349,2.935,2.9328,2.9325,2.9323,2.9321,2.9451,2.9456,2.9461,0,0,0,0,0,0,0,0,0,0,0,0,0,2.8937,2.8942,2.9215,2.9217,2.9219,2.9347,2.9349,2.9351,2.9328,2.9325,2.9322,2.932,2.9449,2.9455,2.9462,0,0,0,0,0,0,0,0,0,0,0,0,0,2.9062,2.8944,2.9215,2.9223,2.9225,2.9347,2.9349,2.9351,2.9329,2.9325,2.9322,2.9319,2.9447,2.9455,2.9463,2.9583,0,0,2.9489,2.9492,0,0,0,0,0,0,0,0,2.9055,2.9072,2.922,2.9223,2.9225,2.9318,2.9298,2.9429,2.9329,2.9289,2.9321,2.9317,2.9409,2.942,2.9452,2.9589,2.9595,2.9489,2.9494,2.9498,2.95,0,0,0,0,0,0,0,2.9046,2.9066,2.9267,2.9222,2.9225,2.9217,2.9231,2.9323,2.9366,2.9292,2.9291,2.9307,2.9409,2.9444,2.9455,2.9597,2.9489,2.9496,2.9502,2.9505,2.9835,2.9839,0,0,0,0,0,0,2.9036,2.9059,2.9263,2.9271,2.913,2.9225,2.9241,2.9291,2.9365,2.9373,2.931,2.9306,2.9431,2.9445,2.9459,2.9603,2.9498,2.9506,2.9511,2.9832,2.9836,2.984,0,0,0,0,0,0,2.903,2.9054,2.9258,2.9165,2.919,2.9234,2.929,2.9296,2.933,2.9379,2.9386,2.9338,2.9429,2.9448,2.9552,2.9608,2.9509,2.9517,2.9827,2.9833,2.9838,2.9893,0,0,0,0,0,0,2.9022,2.9052,2.9101,2.9166,2.9195,2.9351,2.9294,2.9301,2.9346,2.9341,2.9407,2.9414,2.9428,2.954,2.9561,2.9617,2.9524,2.9823,2.983,2.9837,2.9887,2.99,2.9912,0,0,0,0,0,2.9012,2.911,2.9103,2.9128,2.9257,2.9354,2.9371,2.9386,2.935,2.9398,2.9428,2.9412,2.9598,2.9551,2.9574,2.9634,2.9819,2.9828,2.9836,2.9881,2.9898,2.9911,0,0,0,0,0,0,2.9049,2.9119,2.9112,2.9235,2.9289,2.935,2.9411,2.9403,2.9467,2.946,2.9474,2.9489,2.9595,2.9625,2.9571,2.9752,2.9703,2.9717,2.973,2.9746,2.9758,2.9748,2.9531,0,0,0,0,0,2.9072,2.9147,2.9203,2.9306,2.9334,2.9368,2.9411,2.9418,2.9473,2.9496,2.9534,2.9587,2.9657,2.9703,2.977,2.989,2.9903,2.9943,2.9955,2.9965,2.9977,3.004,3.0057,2.9868,2.9868,2.9868,0,0,2.9119,2.9166,2.9213,2.9315,2.9357,2.9433,2.9387,2.9469,2.9524,2.9507,2.9609,2.9638,2.9698,2.981,2.9862,2.9838,3.0031,2.9976,2.9983,2.999,3.005,3.0068,3.0084,2.9874,2.9873,2.9872,0,0,2.9243,2.9288,2.9377,2.9421,2.9486,2.9508,2.9529,2.9591,2.961,2.9713,2.9701,2.9765,2.9886,2.9928,2.9966,3.0102,3.0089,3.0123,3.0189,3.025,3.0265,3.0278,3.0325,3.0342,3.0135,3.0135,3.0135,0,2.9293,2.9409,2.9424,2.9507,2.9551,2.9539,2.9628,2.9669,2.9752,2.9781,2.9754,2.9904,2.9944,3.0065,3.0098,3.0129,3.0151,3.0117,3.0262,3.0275,3.0288,3.0333,3.0351,3.0139,3.0138,3.0138,3.0137,0,2.9466,2.9545,2.9609,2.9691,2.9742,2.9827,2.9853,2.9902,2.9903,2.9926,3.0028,3.0075,3.015,3.0179,3.0181,3.03,3.0283,3.0259,3.0209,3.0309,3.0352,3.0369,3.0144,3.0142,3.0141,3.014,0,0,2.9619,2.9707,2.973,2.9765,2.9835,2.9896,2.9979,3.0054,3.0095,3.0151,3.022,3.0321,3.0298,3.0341,3.0347,3.0401,3.0503,3.0369,3.0371,3.0392,3.0634,3.0652,3.0672,3.0495,3.0498,3.0501,3.0629,0,2.9749,2.9899,2.9913,3.0046,3.0118,3.0107,3.0179,3.0228,3.0251,3.0313,3.0338,3.0409,3.0374,3.0399,3.0452,3.048,3.0552,3.0471,3.0557,3.0559,3.0542,3.0694,3.0714,3.0832,3.0645,3.0648,3.065,0,2.9922,2.9984,3.0125,3.0182,3.0213,3.0278,3.0346,3.0407,3.046,3.0473,3.0519,3.0517,3.06,3.0547,3.0659,3.0603,3.0639,3.0657,3.0662,3.067,3.0611,3.0706,3.0871,3.0888,3.0677,3.0675,3.0673,0,3.0018,3.0137,3.0236,3.0267,3.0337,3.0382,3.0413,3.0464,3.0507,3.0565,3.0593,3.066,3.0696,3.0746,3.0761,3.0722,3.0872,3.0821,3.0883,3.0883,3.0916,3.0914,3.1088,3.0939,3.0939,3.0939,3.0938,0,3.0161,3.0247,3.028,3.0341,3.0435,3.0449,3.0542,3.057,3.0614,3.0678,3.0671,3.0731,3.0747,3.0809,3.082,3.091,3.0927,3.0938,3.094,3.0938,3.0937,3.0962,3.0954,3.0943,3.0942,3.0941,3.0941,0,3.0285,3.0311,3.0417,3.0474,3.049,3.0558,3.0605,3.0662,3.0683,3.0764,3.0783,3.0815,3.0887,3.0907,3.0993,3.1,3.1106,3.11,3.1088,3.1088,3.1149,3.1142,3.1345,3.1372,3.1206,3.1207,3.1209,0,3.0375,3.0441,3.0505,3.0548,3.0581,3.0651,3.0694,3.0709,3.0755,3.082,3.0868,3.0939,3.0997,3.1111,3.1141,3.1206,3.1201,3.1268,3.1211,3.1207,3.1201,3.1197,3.1203,3.1279,3.128,3.1282,3.1283,0,3.0532,3.054,3.0605,3.0674,3.0727,3.0781,3.0833,3.0868,3.089,3.0941,3.1015,3.106,3.1147,3.1216,3.1281,3.131,3.1299,3.13,3.1318,3.1317,3.1307,3.1312,3.1117,3.1296,3.1295,3.1294,3.1293,3.1292,3.0641,3.0698,3.0752,3.0823,3.0864,3.0912,3.0968,3.0996,3.1058,3.1132,3.1136,3.1215,3.1264,3.135,3.1382,3.1443,3.1423,3.1448,3.1455,3.1461,3.1466,3.1298,3.1454,3.1454,3.1454,3.1453,3.1453,0,3.0796,3.0829,3.0895,3.0968,3.1024,3.101,3.1066,3.1113,3.1184,3.1231,3.1288,3.1371,3.1438,3.1472,3.1538,3.1579,3.1576,3.1596,3.1593,3.1599,3.148,3.1458,3.1597,3.1597,3.1597,3.1597,3.1597,3.1597,3.0883,3.0979,3.0993,3.1108,3.114,3.1219,3.1252,3.1295,3.1333,3.1427,3.1483,3.1505,3.1546,3.1614,3.1674,3.1682,3.1706,3.1728,3.1734,3.1622,3.1608,3.1594,3.1573,3.1734,3.1734,3.1847,3.1848,3.1849]}]]